OneWeb SL0499

operational
NORAD ID: 54117 Int'l Des: 2022-138 Owner: ONEWEBN Country: UK Constellation: oneweb
LEOCIRCULARPOLARONEWEB_TYPE

About OneWeb SL0499

Description loading...

Live Position

Loading 3D Globe...

Upcoming Passes

Altitude History

Altitude vs Time

uPlot chart will show altitude changes over time

Two-Line Element Set

1 54117U 22138E 25308.48864638 -.00000041 00000-0 -13376-3 0 9999
2 54117 87.9230 349.6830 0001837 103.4181 256.7157 13.19725448147187
Epoch: Nov 4, 2025 • Age: 14 hours

Current Status

Altitude 1199.4 km
Velocity 7.25 km/s
Sub-Earth Point -34.74°S, 103.24°E
Launch Date Oct 22, 2022
Age 3 years
Type internet

Technical Details

Classification Payload
Mass 148.00 kg
Dry Mass 140.00 kg
Total Mass 148.00 kg
Length 1.30 m
Diameter 1.00 m
Span 5.00 m
Shape Trapezoid+2 pan
Manufacturer ONEWUS
Bus Type ARROW
Phase Status In Orbit
Owner/State ONEWEBN/UK

Large Constellations

Loading constellations...